Stations météo

réclame
Mon MeteoGroup
Ulm-Mähringen, Allemagne (10840): Température de l'air & dewpoint: 09.09.2019 12:00:00 - 15.09.2019 12:00:00 (CEST)Ulm-Mähringen, Allemagne (10840): Température de l'air 5cm & Température de l'air -5cm: 09.09.2019 12:00:00 - 15.09.2019 12:00:00 (CEST)Ulm-Mähringen, Allemagne (10840): Température de l'air -20cm & Température de l'air -100cm: 09.09.2019 12:00:00 - 15.09.2019 12:00:00 (CEST)Ulm-Mähringen, Allemagne (10840): Vitesse du vent & gusts: 09.09.2019 12:00:00 - 15.09.2019 12:00:00 (CEST)Ulm-Mähringen, Allemagne (10840): Direction du vent: 09.09.2019 12:00:00 - 15.09.2019 12:00:00 (CEST)Ulm-Mähringen, Allemagne (10840): reduced air pressure: 09.09.2019 12:00:00 - 15.09.2019 12:00:00 (CEST)Ulm-Mähringen, Allemagne (10840): visibility: 09.09.2019 12:00:00 - 15.09.2019 12:00:00 (CEST)Ulm-Mähringen, Allemagne (10840): Ensoleillement: 09.09.2019 12:00:00 - 15.09.2019 12:00:00 (CEST)Ulm-Mähringen, Allemagne (10840): Quantités de précipitations: 09.09.2019 12:00:00 - 15.09.2019 12:00:00 (CEST)
Date & Time tt [°C] td [°C] tt 5cm [°C] tt -5cm [°C] tt -20cm [°C] tt -100cm [°C] ff [km/h] ff [knt] fx [km/h] fx [knt] dd ppp [hPa] vv [km] sd [min] rr [mm]
15.09.2019 12:00:00 21,3 14,8 26,3 23,9 15,8 16,5 10 6 16 8 S 1023,7 18 60 0,0
15.09.2019 11:00:00 19,5 14,4 24,0 20,5 15,6 16,4 7 4 13 7 SSE 1024,3 15 60 0,0
15.09.2019 10:00:00 16,7 13,5 20,6 16,9 15,6 16,4 6 4 9 5 S 1025,1 10 60 0,0
15.09.2019 09:00:00 12,5 10,9 16,0 13,3 15,8 16,4 3 1 5 3 W 1026,3 8 60 0,0
15.09.2019 08:00:00 9,3 8,6 8,7 10,9 16,1 16,4 3 2 5 3 W 1027,3 3,8 33 0,0
15.09.2019 07:00:00 8,2 8,0 5,1 10,8 16,4 16,4 4 2 5 3 W 1027,6 2,6 0 0,0
15.09.2019 06:00:00 8,2 7,7 6,3 11,2 16,7 16,4 3 1 6 3 NW 1027,7 4,6 0 0,0
15.09.2019 05:00:00 8,0 7,4 5,5 11,7 17,1 16,4 4 2 6 4 W 1028,0 10 0 0,0
15.09.2019 04:00:00 9,3 8,9 6,3 12,3 17,4 16,4 4 2 6 3 NW 1027,8 6 0 0,0
15.09.2019 03:00:00 9,1 8,5 6,4 12,9 17,8 16,4 4 2 6 4 W 1028,3 12 0 0,0
15.09.2019 02:00:00 10,1 9,5 7,4 13,5 18,1 16,4 4 2 5 3 WNW 1028,6 13 0 0,0
15.09.2019 01:00:00 10,8 10,2 7,4 14,2 18,5 16,4 4 2 5 3 W 1028,6 13 0 0,0
15.09.2019 00:00:00 11,7 11,0 8,3 15,0 18,8 16,4 3 2 5 3 W 1028,8 18 0 0,0
14.09.2019 23:00:00 12,6 11,4 8,8 15,9 19,2 16,4 3 2 5 3 WNW 1029,0 23 0 0,0
14.09.2019 22:00:00 13,9 11,9 10,1 17,0 19,4 16,4 3 2 7 4 WNW 1028,6 27 0 0,0
14.09.2019 21:00:00 16,1 12,3 12,4 18,3 19,6 16,4 7 4 9 5 NNE 1028,2 33 0 0,0
14.09.2019 20:00:00 18,9 12,6 14,0 19,9 19,7 16,4 6 3 11 6 ESE 1027,3 49 16 0,0
14.09.2019 19:00:00 20,5 12,4 19,8 22,0 19,6 16,4 10 5 21 12 E 1026,9 47 39 0,0
14.09.2019 18:00:00 21,1 12,7 20,3 23,7 19,4 16,4 6 3 20 11 E 1026,7 56 35 0,0
14.09.2019 17:00:00 21,7 11,8 23,2 25,5 19,0 16,4 10 6 21 11 NE 1026,9 51 23 0,0
14.09.2019 16:00:00 22,8 12,5 28,5 26,9 18,4 16,4 7 4 20 11 ENE 1027,0 63 48 0,0
14.09.2019 15:00:00 21,8 13,6 26,8 26,0 17,9 16,4 10 6 24 13 NNE 1027,7 45 40 0,0
14.09.2019 14:00:00 21,4 13,1 27,9 26,1 17,3 16,4 10 5 19 10 NE 1028,2 42 51 0,0
14.09.2019 13:00:00 20,0 13,4 22,8 24,2 16,8 16,4 8 4 19 10 ENE 1029,1 33 46 0,0
14.09.2019 12:00:00 20,3 13,9 24,7 22,6 16,4 16,4 11 6 22 12 E 1029,4 26 57 0,0
14.09.2019 11:00:00 18,7 13,8 23,2 20,1 16,3 16,4 9 5 19 11 ENE 1030,1 29 59 0,0
14.09.2019 10:00:00 16,9 13,2 18,5 17,3 16,3 16,4 12 7 19 10 E 1030,8 27 53 0,0
14.09.2019 09:00:00 15,9 13,2 16,2 15,1 16,4 16,4 9 5 12 7 ENE 1030,9 29 12 0,0
14.09.2019 08:00:00 13,3 12,3 13,0 13,7 16,6 16,4 3 2 9 5 NE 1031,5 15 0 0,0
14.09.2019 07:00:00 13,1 11,8 10,4 13,5 16,7 16,4 8 4 12 6 NNE 1031,0 16 0 0,0
14.09.2019 06:00:00 13,0 11,6 11,1 14,0 17,0 16,4 8 4 11 6 NNE 1031,0 14 0 0,0
14.09.2019 05:00:00 13,1 11,9 11,9 13,9 17,2 16,4 8 4 13 7 NNE 1031,5 18 0 0,0
14.09.2019 04:00:00 12,9 11,5 11,2 14,1 17,4 16,4 6 4 10 5 N 1031,8 20 0 0,0
14.09.2019 03:00:00 13,5 12,0 12,5 14,5 17,7 16,4 6 3 9 5 N 1032,0 24 0 0,0
14.09.2019 02:00:00 13,0 11,9 10,4 14,5 18,0 16,4 4 2 8 4 NNW 1032,2 20 0 0,0
14.09.2019 01:00:00 13,2 12,0 10,2 15,0 18,4 16,4 4 2 8 4 NW 1032,4 17 0 0,0
14.09.2019 00:00:00 13,6 12,2 10,8 15,7 18,7 16,4 6 3 12 7 NW 1032,4 20 0 0,0
13.09.2019 23:00:00 13,9 12,3 11,5 16,5 19,0 16,4 8 5 10 5 NNW 1032,4 18 0 0,0
13.09.2019 22:00:00 15,3 12,9 13,1 17,4 19,2 16,4 9 5 10 5 NNE 1031,7 24 0 0,0
13.09.2019 21:00:00 16,2 13,1 13,5 18,6 19,4 16,4 8 4 13 7 NNW 1031,4 29 0 0,0
13.09.2019 20:00:00 17,6 13,4 15,5 20,2 19,5 16,4 11 6 19 11 NNW 1030,6 35 29 0,0
13.09.2019 19:00:00 20,6 13,2 21,3 22,2 19,3 16,4 15 8 19 11 NNW 1029,8 46 60 0,0
13.09.2019 18:00:00 21,7 12,5 25,0 24,8 19,0 16,4 13 7 21 12 N 1029,4 36 60 0,0
13.09.2019 17:00:00 22,3 11,6 27,4 26,7 18,5 16,4 12 6 22 12 NNW 1029,3 42 60 0,0
13.09.2019 16:00:00 22,1 13,3 28,4 27,6 17,9 16,4 14 8 25 13 N 1029,5 28 59 0,0
13.09.2019 15:00:00 22,1 13,4 28,9 27,2 17,2 16,4 16 9 29 16 NNW 1029,8 27 53 0,0
13.09.2019 14:00:00 22,2 13,3 29,2 26,8 16,6 16,4 15 8 25 14 NNW 1030,0 27 46 0,0
13.09.2019 13:00:00 22,2 12,2 27,4 24,7 15,9 16,4 10 5 23 12 WSW 1030,1 41 38 0,0
13.09.2019 12:00:00 21,7 12,6 27,4 24,0 15,4 16,4 7 4 17 9 S 1030,3 34 60 0,0
13.09.2019 11:00:00 20,3 11,7 24,3 20,7 15,1 16,4 11 6 16 8 SSW 1030,7 27 60 0,0
13.09.2019 10:00:00 18,4 12,5 22,0 17,4 15,0 16,4 7 4 11 6 SW 1031,3 31 60 0,0
13.09.2019 09:00:00 14,9 11,1 16,8 13,6 15,2 16,4 2 1 5 3 NW 1032,2 32 60 0,0
13.09.2019 08:00:00 9,9 8,6 11,4 11,0 15,4 16,4 3 2 6 3 W 1033,3 15 43 0,0
13.09.2019 07:00:00 9,3 8,9 6,4 10,7 15,7 16,4 4 2 9 5 WSW 1033,2 15 0 0,0
13.09.2019 06:00:00 9,3 8,9 6,7 11,1 16,0 16,4 4 2 8 4 W 1033,0 10 0 0,0
13.09.2019 05:00:00 9,6 9,2 7,0 11,6 16,3 16,4 3 2 9 5 W 1032,9 12 0 0,0
13.09.2019 04:00:00 9,5 8,9 6,9 12,0 16,6 16,4 6 3 6 4 W 1033,0 26 0 0,0
13.09.2019 03:00:00 10,2 9,6 7,6 12,5 17,0 16,5 3 2 8 4 W 1032,8 21 0 0,0
13.09.2019 02:00:00 10,7 10,0 7,8 13,1 17,3 16,5 7 4 9 5 W 1032,9 25 0 0,0
13.09.2019 01:00:00 10,6 9,8 8,3 13,8 17,7 16,5 5 3 7 4 W 1032,7 26 0 0,0
13.09.2019 00:00:00 11,9 10,9 9,1 14,5 18,0 16,5 4 2 10 5 WSW 1032,6 33 0 0,0
12.09.2019 23:00:00 11,8 10,2 9,6 15,4 18,3 16,5 5 3 9 5 W 1032,7 36 0 0,0
12.09.2019 22:00:00 13,4 11,3 10,4 16,4 18,6 16,5 5 3 6 3 WNW 1032,0 38 0 0,0
12.09.2019 21:00:00 15,0 11,5 11,5 17,8 18,8 16,5 4 2 8 4 WNW 1031,3 44 0 0,0
12.09.2019 20:00:00 18,9 11,6 14,5 19,5 18,8 16,5 7 4 8 4 NNE 1029,9 49 31 0,0
12.09.2019 19:00:00 21,0 11,4 21,7 21,5 18,7 16,5 7 4 16 9 NNE 1029,2 55 60 0,0
12.09.2019 18:00:00 22,2 10,5 25,9 24,1 18,4 16,5 10 5 19 10 NW 1028,7 60 44 0,0
12.09.2019 17:00:00 21,9 10,0 22,3 24,3 18,0 16,5 6 4 22 12 SW 1028,9 61 13 0,0
12.09.2019 16:00:00 22,5 10,2 26,9 25,9 17,4 16,5 10 6 21 11 WSW 1029,1 59 36 0,0
12.09.2019 15:00:00 21,8 10,1 28,2 26,8 16,7 16,5 8 5 21 11 WNW 1029,5 67 40 0,0
12.09.2019 14:00:00 21,2 9,3 26,7 26,8 16,0 16,5 13 7 25 13 W 1029,8 37 60 0,0
12.09.2019 13:00:00 20,3 9,4 27,5 25,1 15,4 16,6 9 5 22 12 SW 1030,3 42 59 0,0
12.09.2019 12:00:00 19,4 9,3 25,7 22,2 15,0 16,6 10 5 21 12 W 1030,7 50 57 0,0
12.09.2019 11:00:00 18,2 9,7 21,4 18,3 14,9 16,6 7 4 12 7 WSW 1030,7 46 18 0,0
12.09.2019 10:00:00 16,3 10,2 17,5 15,5 14,8 16,6 4 2 12 7 SW 1030,6 44 1 0,0
12.09.2019 09:00:00 14,7 9,6 15,7 14,1 14,9 16,6 4 2 10 5 WSW 1030,4 36 0 0,0
12.09.2019 08:00:00 13,2 9,2 13,4 13,1 15,0 16,6 7 4 11 6 SSW 1030,3 39 0 0,0
12.09.2019 07:00:00 13,0 9,0 11,9 13,1 15,1 16,6 6 3 9 5 SW 1030,0 35 0 0,0
12.09.2019 06:00:00 13,0 9,2 12,6 13,3 15,2 16,6 6 3 8 4 SSW 1029,6 34 0 0,0
12.09.2019 05:00:00 13,2 8,9 12,4 13,3 15,4 16,6 5 3 11 6 SW 1029,2 43 0 0,0
12.09.2019 04:00:00 13,6 8,6 13,0 13,5 15,5 16,6 8 4 11 6 SW 1029,2 40 0 0,0
12.09.2019 03:00:00 13,1 8,6 12,6 13,6 15,6 16,6 4 2 10 6 W 1029,1 46 0 0,0
12.09.2019 02:00:00 13,2 9,1 12,7 13,7 15,8 16,7 7 4 13 7 SW 1028,7 42 0 0,0
12.09.2019 01:00:00 13,5 8,3 12,6 13,9 16,0 16,7 5 3 12 6 SW 1028,4 51 0 0,0
12.09.2019 00:00:00 14,1 8,0 13,1 14,3 16,2 16,7 6 3 14 8 WSW 1027,8 52 0 0,0
11.09.2019 23:00:00 14,3 8,5 13,0 14,8 16,4 16,7 5 3 9 5 WSW 1027,7 54 0 0,0
11.09.2019 22:00:00 15,0 8,0 13,9 15,2 16,5 16,7 7 4 13 7 W 1027,1 65 0 0,0
11.09.2019 21:00:00 15,4 9,2 14,1 15,9 16,6 16,7 6 3 16 9 NW 1026,6 45 0 0,0
11.09.2019 20:00:00 15,5 10,5 14,0 16,8 16,7 16,7 5 3 14 8 NW 1025,4 30 0 0,0
11.09.2019 19:00:00 17,0 9,8 15,6 18,4 16,6 16,7 9 5 14 7 NW 1024,4 48 14 0,0
11.09.2019 18:00:00 18,0 10,0 17,4 19,8 16,4 16,7 5 3 19 11 N 1023,6 34 29 0,0
11.09.2019 17:00:00 18,6 9,8 24,4 20,9 16,0 16,8 8 4 16 8 NNW 1023,1 37 12 0,0
11.09.2019 16:00:00 18,2 9,6 19,9 23,5 15,4 16,8 10 6 18 10 NW 1022,9 42 41 0,0
11.09.2019 15:00:00 19,4 8,5 24,7 24,4 14,7 16,8 10 5 22 12 SSE 1022,6 36 60 0,0
11.09.2019 14:00:00 18,6 7,9 25,3 23,4 14,0 16,8 8 4 19 10 SSE 1022,9 30 60 0,0
11.09.2019 13:00:00 17,8 8,4 24,6 21,4 13,5 16,8 6 3 13 7 SSE 1023,2 28 60 0,0
11.09.2019 12:00:00 17,0 8,3 23,9 18,3 13,1 16,8 5 3 12 6 S 1023,4 30 60 0,0
11.09.2019 11:00:00 15,8 6,7 21,8 15,1 12,9 16,8 6 3 10 5 SSE 1023,9 31 60 0,0
11.09.2019 10:00:00 13,7 6,7 20,4 12,0 12,9 16,8 3 2 5 3 NW 1023,8 23 60 0,0
11.09.2019 09:00:00 10,5 7,3 13,4 9,6 13,0 16,8 2 1 6 3 W 1024,2 14 60 0,0
11.09.2019 08:00:00 6,4 5,5 8,1 8,4 13,2 16,9 4 2 6 4 W 1024,8 8 24 0,0
11.09.2019 07:00:00 5,5 5,1 3,2 8,4 13,4 16,9 4 2 6 3 W 1024,6 5 0 0,0
11.09.2019 06:00:00 6,0 5,5 5,7 8,9 13,6 16,9 4 2 6 3 W 1023,7 7 0 0,0
11.09.2019 05:00:00 6,2 5,7 3,5 8,8 13,8 16,9 4 2 6 3 W 1023,1 6 0 0,0
11.09.2019 04:00:00 6,6 6,0 4,7 9,4 14,0 16,9 3 2 6 3 W 1023,0 8 0 0,0
11.09.2019 03:00:00 6,9 6,2 5,4 9,6 14,2 16,9 3 2 6 3 W 1022,8 10 0 0,0
11.09.2019 02:00:00 6,9 6,4 4,9 9,7 14,5 16,9 4 2 7 4 NW 1022,7 10 0 0,0
11.09.2019 01:00:00 6,8 6,0 4,4 10,1 14,7 16,9 4 2 7 4 WNW 1022,5 10 0 0,0
11.09.2019 00:00:00 8,0 7,1 4,8 10,6 15,0 17,0 3 2 6 4 NW 1022,0 11 0 0,0
10.09.2019 23:00:00 8,5 7,5 5,7 11,4 15,2 17,0 4 2 8 4 NW 1022,0 16 0 0,0
10.09.2019 22:00:00 10,4 7,9 6,4 12,2 15,4 17,0 6 3 10 5 N 1021,1 19 0 0,0
10.09.2019 21:00:00 10,9 7,8 7,3 13,2 15,6 17,0 8 4 9 5 N 1020,6 20 0 0,0
10.09.2019 20:00:00 12,9 7,9 8,7 14,5 15,6 17,0 7 4 12 7 ENE 1019,2 30 28 0,0
10.09.2019 19:00:00 15,5 7,6 13,6 16,0 15,5 17,0 8 5 16 8 NE 1018,1 39 58 0,0
10.09.2019 18:00:00 16,2 7,2 16,3 17,8 15,3 17,0 13 7 18 10 NNE 1017,3 31 60 0,0
10.09.2019 17:00:00 16,6 6,7 19,0 20,0 15,0 17,0 8 4 17 9 NE 1016,8 30 60 0,0
10.09.2019 16:00:00 16,2 8,4 19,5 20,4 14,5 17,0 9 5 19 10 NE 1017,0 24 53 0,0
10.09.2019 15:00:00 15,6 8,6 18,4 20,6 14,0 17,1 12 6 20 11 E 1017,2 24 58 0,0
10.09.2019 14:00:00 15,5 7,6 21,1 20,5 13,4 17,1 11 6 23 13 E 1017,0 28 60 0,0
10.09.2019 13:00:00 14,6 8,2 20,4 18,9 13,0 17,1 11 6 23 12 E 1017,2 17 60 0,0
10.09.2019 12:00:00 13,7 8,7 18,8 16,4 12,7 17,1 15 8 23 12 E 1017,5 17 60 0,0
10.09.2019 11:00:00 11,5 8,8 14,4 13,0 12,7 17,1 9 5 14 8 E 1017,8 10 9 0,0
10.09.2019 10:00:00 9,2 8,4 10,0 10,5 12,7 17,1 7 4 10 5 E 1018,1 4,5 0 0,0
10.09.2019 09:00:00 7,4 6,9 9,2 9,4 12,8 17,1 2 1 4 2 WNW 1018,4 6 0 0,0
10.09.2019 08:00:00 6,0 5,6 6,7 8,5 13,0 17,1 3 2 5 3 W 1018,4 4,9 0 0,0
10.09.2019 07:00:00 5,1 4,7 5,2 8,1 13,2 17,1 4 2 6 3 W 1018,1 4,7 0 0,0
10.09.2019 06:00:00 4,7 4,4 2,7 7,8 13,4 17,2 3 2 5 3 WNW 1017,7 3,0 0 0,0
10.09.2019 05:00:00 5,1 4,7 3,0 8,2 13,6 17,2 3 2 5 3 W 1017,8 2,5 0 0,0
10.09.2019 04:00:00 5,8 5,5 3,5 8,6 13,8 17,2 3 2 6 3 WNW 1017,5 2,8 0 0,0
10.09.2019 03:00:00 6,0 5,7 4,7 9,0 14,0 17,2 4 2 5 3 WNW 1017,7 2,3 0 0,0
10.09.2019 02:00:00 6,0 5,6 4,6 9,3 14,3 17,2 3 2 4 2 WNW 1017,8 6 0 0,0
10.09.2019 01:00:00 6,6 6,0 4,4 9,9 14,5 17,2 2 1 4 2 WNW 1017,6 8 0 0,0
10.09.2019 00:00:00 7,0 6,5 6,3 10,1 14,7 17,2 3 2 4 2 NW 1017,4 4,7 0 0,0
09.09.2019 23:00:00 7,3 6,7 6,2 10,6 15,0 17,2 4 2 6 3 N 1017,4 9 0 0,0
09.09.2019 22:00:00 7,4 6,6 4,7 11,0 15,2 17,3 3 2 5 3 NW 1017,4 7 0 0,0
09.09.2019 21:00:00 8,4 7,4 5,7 12,1 15,3 17,3 3 1 5 3 WNW 1016,7 13 0 0,0
09.09.2019 20:00:00 10,4 8,1 7,7 13,6 15,3 17,3 5 3 10 5 N 1015,8 18 37 0,0
09.09.2019 19:00:00 13,6 7,3 12,4 15,4 15,2 17,3 5 3 12 7 WNW 1014,9 48 22 0,0
09.09.2019 18:00:00 13,4 7,9 16,4 16,4 15,0 17,3 8 4 12 7 S 1014,8 39 10 0,0
09.09.2019 17:00:00 13,7 7,7 15,6 17,5 14,8 17,3 9 5 27 15 WNW 1014,9 40 22 0,0
09.09.2019 16:00:00 13,4 7,0 16,4 19,0 14,5 17,3 13 7 27 15 WNW 1015,0 46 45 0,0
09.09.2019 15:00:00 12,0 7,2 13,9 16,6 14,2 17,3 16 8 27 14 W 1015,9 33 2 0,0
09.09.2019 14:00:00 12,1 7,9 17,0 16,6 14,0 17,3 14 8 27 15 W 1016,0 29 11 0,0
09.09.2019 13:00:00 11,0 8,4 15,1 14,1 14,0 17,3 11 6 26 14 W 1016,0 29 0 0,0
09.09.2019 12:00:00 9,9 8,1 11,0 12,7 14,0 17,4 14 7 27 15 W 1016,6 29 0 0,0

tt = Température de l'air
td = dewpoint
tt 5cm = Température de l'air 5cm
tt -5cm = Température de l'air -5cm
tt -20cm = Température de l'air -20cm
tt -100cm = Température de l'air -100cm
ff = Vitesse du vent
fx = gusts
dd = Direction du vent
ppp = reduced air pressure
vv = visibility
sd = Ensoleillement
rr = Quantités de précipitations

stations d'obs. à proximité